阿斯特拉 3A星 (ASTRA 3A)

导读

ASTRA 3A是SES公司运营的阿斯特拉系列商业通信卫星,属于Astra-3子系列,于2002年3月29日发射升空,定点在东经23.5度轨道位置。该卫星主要面向欧洲区域提供电视直播到户等通信广播服务,是阿斯特拉卫星网络的组成部分,支撑欧洲地区广播电视信号传输与分发业务,丰富了当地民众的媒体内容接收选择。

基本信息
目录编号:
27400
目录名称:
ASTRA 3A
国际标识:
2002-015B
轨道中心:
EARTH
卫星名称:
阿斯特拉 3A星
卫星全名:
阿斯特拉 3A星 (ASTRA 3A)
卫星状态:
在轨 (已飞行8873 天)
发射日期:
2002-03-29 UTC
国别 :
(SES)
星等 :
--
轨道信息
数据来源 国际轨道数据 AOE轨道数据
星历时间 2026-07-14T04:12:38+0800
9小时前
查看轨道信息
2026-07-09T06:00:00+0800
5天前
查看轨道信息
半长轴 42499.661km 42499.461km
偏心率 0.0001281 0.0001238
轨道倾角 10.592° 10.580°
近地点辐角 254.965° 257.969°
升交点赤经 47.658° 47.703°
平近点角 271.461° 311.383°
近地点 36116.079km 36116.062km
远地点 36126.969km 36126.586km
周期 1453.242分钟 1453.232分钟
每日圈数 0.990888 0.990895
详细信息
卫星平台:
HS-376HP
平衡模式:
三轴稳定
覆盖范围:
全球
运营商:
欧洲卫星公司
运营商所在国:
卢森堡
制造商(研发单位):
阿尔卡特空间公司
制造商所在国:
美国
使用方式:
暂无
卫星简介
阿斯特拉卫星是由SES阿斯特拉运营的商业通信卫星,主要提供电视直播到户业务。Astra卫星包括三个系列共19颗卫星,分别定点在三个不同轨位:Astra-1系列包括十三颗卫星,定点东经19.2度;Astra-2系列包括4颗卫星,定点东经28.2度;Astra-3系列包括2颗卫星,定点东经23.5度。该卫星已退役。
2D轨道图
3D轨道图
轨道高度分析图
轨道倾角分析图
轨道综合分析图
查看轨道综合分析图